STARLINK-34108, 65872

Orbit data source: Space-Track

STARLINK-34108, 65872 is a payload satellite owned by SpaceX/Seattle (US) in LEO that was launched on Fri, 03 Oct 2025 UTC via an FALCON 9 launch vehicle from the Air Force Western Test Range (AFWTR). Payload-class satellites include a variety of spacecraft equipped with specific instruments for various scientific and technological missions. These include communications satellites like Starlink; space stations such as the ISS; scientific satellites like the Hubble; Earth observation satellites from companies like Planet Labs, Umbra, and HawkEye 360; GPS; miniature CubeSats for education and research; and military/defense satellites.

Loading next visibility...
Identifier
65872, 2025-223U
Orbit
LEO
Country
Flag of USUS
Related business
Manufacturer
SpaceX/Seattle
Mission
Operational Commercial Communications
Bus & Motor
STARLINK V2MO, Unknown motor
Mass
575 kg wet, ~530 kg dry
Launch date (UTC)
2025-10-03 (9 months ago)
Launch vehicle
FALCON 9
Launch site
Air Force Western Test Range (AFWTR)
Object type
Payload
Rocket body
Debris
Shape & HBR
Box + 2 Pan, 17.7 m
Radar Cross Section
36.964 m², Large (>1 m²)

Expand to show TLE details & history
Last TLE update: 15 hours ago

TLE from 15 hours ago
0 STARLINK-34108
1 65872U 25223U   26171.33612601  .00005061  00000-0  18281-3 0  9996
2 65872  53.1594 177.2224 0000922  63.5210 296.5885 15.30212379 39921
Epoch: 2026-06-20T08:04Z
TLE epoch observation values (Epoch: 2026-06-20T08:04:01.287Z)
Latitude
-0.00003°
Longitude
147.6648°
Altitude
475.795 km
Speed
7.629 km/s
True Right ascension
11h 48m 53s
True Declination
0° 00' 00"
Sunlit
Object was in daylight at epoch
Visualization orbit readout
Latitude
Unknown
Longitude
Unknown
Altitude
Unknown
Speed
Unknown
Apparent Right ascension
Unknown
Apparent Declination
Unknown
Sunlit
N/A
Visualization observer readout
Local Sidereal Time
10:17:52
Azimuth
Unknown
Elevation
Unknown
Doppler factor
Unknown
Orbital elements
Apogee altitude
476.067 km
Perigee altitude
474.803 km
Semi-major axis
6,853.572 km
Eccentricity
0.00009
Inclination
53.1594°
RAAN
177.2224°
Arg. of periapsis
63.521°
True anomaly
296.57905°
Mean anomaly
296.5885°
Eccentric anomaly
296.58378°
Mean motion
3.82532 °/min
Orbital period
94.11 mins
BSTAR
0.00018281
Loading maneuver chart data...
Computing Atmospheric mass density...
Loading historical data...
Loading historical data...
Loading historical data...
Loading historical data...
Loading historical data...
Loading historical data...
Loading historical data...

Documentation

Showing up to 5 results
|